| time (UTC) | temp F | wind direction | speed knots | gust knots | rain 1hr in | rain 24hr in | rain mn in | humidity % | barometer mb |
| 20260906224520 | 50 | 299 | 0.0 | 0.0 | 0.00 | 0.01 | 0.00 | 91 | 1024.9 |
| 20260906223017 | 50 | 299 | 0.0 | 0.0 | 0.00 | 0.01 | 0.00 | 90 | 1025.0 |
| 20260906221549 | 50 | 299 | 0.0 | 0.0 | 0.00 | 0.01 | 0.00 | 90 | 1025.1 |
| 20260906220048 | 50 | 299 | 0.0 | 0.0 | 0.00 | 0.01 | 0.00 | 89 | 1025.2 |
| 20260906214548 | 51 | 299 | 0.0 | 0.0 | 0.00 | 0.01 | 0.01 | 89 | 1025.2 |
| 20260906213043 | 51 | 299 | 0.0 | 0.0 | 0.00 | 0.01 | 0.01 | 88 | 1025.4 |
| 20260906211547 | 52 | 299 | 0.0 | 0.0 | 0.00 | 0.01 | 0.01 | 87 | 1025.2 |
| 20260906210052 | 52 | 299 | 0.0 | 0.0 | 0.00 | 0.01 | 0.01 | 87 | 1025.3 |
| 20260906204539 | 52 | 299 | 0.0 | 0.0 | 0.00 | 0.01 | 0.01 | 86 | 1025.4 |
| 20260906203038 | 53 | 299 | 0.0 | 0.0 | 0.00 | 0.01 | 0.01 | 86 | 1025.5 |
| 20260906201537 | 53 | 299 | 0.0 | 0.0 | 0.00 | 0.01 | 0.01 | 85 | 1025.4 |
| 20260906200047 | 54 | 299 | 0.0 | 0.0 | 0.00 | 0.01 | 0.01 | 84 | 1025.6 |
| 20260906194539 | 54 | 299 | 0.0 | 0.0 | 0.00 | 0.01 | 0.01 | 83 | 1025.6 |
| 20260906193137 | 55 | 299 | 0.0 | 0.0 | 0.00 | 0.01 | 0.01 | 82 | 1025.7 |
| 20260906191542 | 55 | 299 | 0.0 | 0.0 | 0.00 | 0.01 | 0.01 | 81 | 1025.7 |
| 20260906190040 | 56 | 299 | 0.0 | 0.0 | 0.00 | 0.01 | 0.01 | 79 | 1025.7 |
| 20260906184533 | 57 | 299 | 0.0 | 0.0 | 0.00 | 0.01 | 0.01 | 77 | 1025.6 |
| 20260906183036 | 58 | 299 | 0.0 | 0.0 | 0.00 | 0.01 | 0.01 | 74 | 1025.6 |
| 20260906181536 | 59 | 299 | 0.0 | 0.0 | 0.00 | 0.01 | 0.01 | 73 | 1025.6 |
| 20260906180032 | 60 | 299 | 0.0 | 0.0 | 0.00 | 0.01 | 0.01 | 71 | 1025.6 |
| 20260906174529 | 61 | 299 | 0.0 | 0.0 | 0.00 | 0.01 | 0.01 | 69 | 1025.4 |
| 20260906173030 | 62 | 299 | 0.0 | 0.0 | 0.00 | 0.01 | 0.01 | 66 | 1025.4 |
| 20260906171529 | 63 | 299 | 0.0 | 0.9 | 0.00 | 0.01 | 0.01 | 63 | 1025.5 |
| 20260906170028 | 64 | 228 | 0.0 | 1.7 | 0.00 | 0.01 | 0.01 | 61 | 1025.5 |
| 20260906164527 | 64 | 201 | 0.0 | 1.7 | 0.00 | 0.01 | 0.01 | 61 | 1025.6 |
| 20260906163029 | 65 | 267 | 0.9 | 3.5 | 0.00 | 0.01 | 0.01 | 60 | 1025.6 |
| 20260906160053 | 66 | 196 | 0.9 | 6.1 | 0.00 | 0.01 | 0.01 | 59 | 1025.5 |
| 20260906154557 | 66 | 267 | 0.9 | 3.5 | 0.00 | 0.01 | 0.01 | 57 | 1025.5 |
| 20260906153051 | 67 | 281 | 1.7 | 7.0 | 0.00 | 0.01 | 0.01 | 58 | 1025.7 |
| 20260906151601 | 67 | 244 | 0.9 | 5.2 | 0.00 | 0.01 | 0.01 | 56 | 1025.6 |
| 20260906150051 | 67 | 228 | 0.9 | 8.7 | 0.00 | 0.01 | 0.01 | 56 | 1025.6 |
| 20260906144548 | 67 | 152 | 0.9 | 10.4 | 0.00 | 0.06 | 0.01 | 55 | 1025.6 |
| 20260906143106 | 68 | 302 | 2.6 | 9.6 | 0.00 | 0.06 | 0.01 | 54 | 1025.8 |
| 20260906141551 | 68 | 273 | 3.5 | 7.8 | 0.00 | 0.06 | 0.01 | 55 | 1025.8 |
| 20260906140048 | 69 | 284 | 1.7 | 8.7 | 0.00 | 0.06 | 0.01 | 58 | 1025.9 |
| 20260906134551 | 69 | 305 | 2.6 | 7.0 | 0.00 | 0.06 | 0.01 | 54 | 1026.0 |
| 20260906133047 | 70 | 149 | 0.9 | 5.2 | 0.00 | 0.06 | 0.01 | 55 | 1025.9 |
| 20260906131550 | 69 | 258 | 2.6 | 10.4 | 0.00 | 0.06 | 0.01 | 56 | 1026.0 |
| 20260906130045 | 70 | 289 | 1.7 | 8.7 | 0.00 | 0.06 | 0.01 | 55 | 1025.9 |
| 20260906124540 | 69 | 186 | 2.6 | 10.4 | 0.00 | 0.06 | 0.01 | 56 | 1026.1 |
| 20260906123039 | 68 | 277 | 0.9 | 8.7 | 0.00 | 0.06 | 0.01 | 58 | 1026.1 |
| 20260906121540 | 69 | 285 | 2.6 | 9.6 | 0.00 | 0.06 | 0.01 | 58 | 1026.1 |
| 20260906120036 | 69 | 312 | 0.9 | 7.0 | 0.00 | 0.06 | 0.01 | 58 | 1026.1 |
| 20260906114536 | 66 | 207 | 1.7 | 9.6 | 0.00 | 0.06 | 0.01 | 62 | 1026.3 |
| 20260906113042 | 66 | 259 | 4.3 | 12.2 | 0.01 | 0.06 | 0.01 | 58 | 1026.2 |
| 20260906111535 | 68 | 303 | 3.5 | 7.8 | 0.01 | 0.06 | 0.01 | 59 | 1026.1 |
| 20260906110031 | 66 | 264 | 1.7 | 8.7 | 0.01 | 0.06 | 0.01 | 59 | 1026.1 |
| 20260906104531 | 65 | 308 | 3.5 | 8.7 | 0.01 | 0.06 | 0.01 | 60 | 1026.0 |
| 20260906103029 | 68 | 316 | 1.7 | 9.6 | 0.00 | 0.06 | 0.00 | 58 | 1025.8 |
| 20260906101526 | 68 | 261 | 0.9 | 7.0 | 0.00 | 0.06 | 0.00 | 62 | 1025.8 |
| 20260906100023 | 67 | 292 | 0.9 | 7.0 | 0.00 | 0.06 | 0.00 | 64 | 1025.7 |
| 20260906094531 | 66 | 297 | 1.7 | 7.0 | 0.00 | 0.06 | 0.00 | 63 | 1025.8 |
| 20260906093019 | 64 | 308 | 2.6 | 7.8 | 0.00 | 0.06 | 0.00 | 66 | 1025.9 |
| 20260906091526 | 64 | 242 | 1.7 | 9.6 | 0.00 | 0.06 | 0.00 | 69 | 1025.9 |
| 20260906090014 | 64 | 250 | 1.7 | 4.3 | 0.00 | 0.06 | 0.00 | 72 | 1025.9 |
| 20260906084520 | 62 | 292 | 2.6 | 8.7 | 0.00 | 0.06 | 0.00 | 73 | 1025.9 |
| 20260906083019 | 63 | 275 | 1.7 | 8.7 | 0.00 | 0.06 | 0.00 | 73 | 1025.6 |
| 20260906081521 | 61 | 278 | 1.7 | 7.8 | 0.00 | 0.06 | 0.00 | 77 | 1025.6 |
| 20260906080004 | 62 | 177 | 0.0 | 5.2 | 0.00 | 0.06 | 0.00 | 76 | 1025.4 |
| 20260906074601 | 61 | 255 | 0.9 | 7.0 | 0.00 | 0.06 | 0.00 | 78 | 1025.3 |
| 20260906073057 | 60 | 292 | 0.0 | 5.2 | 0.00 | 0.06 | 0.00 | 79 | 1025.0 |
| 20260906071604 | 59 | 252 | 1.7 | 8.7 | 0.00 | 0.06 | 0.00 | 80 | 1024.9 |
| 20260906070049 | 59 | 290 | 0.9 | 5.2 | 0.00 | 0.06 | 0.00 | 82 | 1024.8 |
| 20260906064545 | 58 | 282 | 2.6 | 8.7 | 0.00 | 0.06 | 0.00 | 83 | 1024.7 |
| 20260906063041 | 57 | 290 | 1.7 | 6.1 | 0.00 | 0.06 | 0.00 | 86 | 1024.5 |
| 20260906061538 | 56 | 269 | 1.7 | 7.8 | 0.00 | 0.06 | 0.00 | 88 | 1024.5 |
| 20260906060032 | 55 | 309 | 0.9 | 5.2 | 0.00 | 0.06 | 0.00 | 90 | 1024.2 |
| 20260906054528 | 54 | 265 | 0.9 | 6.1 | 0.00 | 0.06 | 0.00 | 91 | 1024.0 |
| 20260906053029 | 54 | 275 | 0.9 | 7.0 | 0.00 | 0.06 | 0.00 | 92 | 1023.9 |
| 20260906051530 | 53 | 252 | 0.9 | 4.3 | 0.00 | 0.06 | 0.00 | 94 | 1023.7 |
| 20260906050045 | 52 | 302 | 0.9 | 6.1 | 0.00 | 0.06 | 0.00 | 94 | 1023.5 |
| 20260906044517 | 52 | 289 | 0.0 | 4.3 | 0.00 | 0.06 | 0.00 | 93 | 1023.5 |
| 20260906043015 | 52 | 250 | 0.9 | 3.5 | 0.00 | 0.06 | 0.00 | 92 | 1023.4 |
| 20260906041516 | 52 | 253 | 0.0 | 2.6 | 0.00 | 0.06 | 0.00 | 91 | 1023.2 |
| 20260906040009 | 53 | 260 | 0.0 | 1.7 | 0.00 | 0.06 | 0.00 | 91 | 1023.2 |
| 20260906034508 | 53 | 271 | 0.0 | 2.6 | 0.00 | 0.06 | 0.00 | 91 | 1023.0 |
| 20260906033006 | 54 | 304 | 0.9 | 6.1 | 0.00 | 0.06 | 0.00 | 91 | 1023.0 |
| 20260906031504 | 54 | 273 | 0.0 | 5.2 | 0.00 | 0.06 | 0.00 | 91 | 1022.9 |
| 20260906030002 | 54 | 276 | 0.9 | 3.5 | 0.00 | 0.06 | 0.00 | 90 | 1022.8 |
| 20260906024603 | 55 | 293 | 0.0 | 10.4 | 0.00 | 0.06 | 0.00 | 90 | 1022.7 |
| 20260906023119 | 55 | 275 | 0.9 | 3.5 | 0.00 | 0.06 | 0.00 | 90 | 1022.6 |
| 20260906021611 | 55 | 263 | 0.0 | 4.3 | 0.00 | 0.06 | 0.00 | 90 | 1022.7 |
| 20260906020100 | 55 | 265 | 0.0 | 4.3 | 0.00 | 0.06 | 0.00 | 90 | 1022.5 |
| 20260906014557 | 55 | 283 | 0.0 | 4.3 | 0.00 | 0.06 | 0.00 | 90 | 1022.4 |
| 20260906013052 | 54 | 231 | 0.0 | 4.3 | 0.00 | 0.06 | 0.00 | 90 | 1022.1 |
| 20260906011550 | 55 | 287 | 0.9 | 3.5 | 0.00 | 0.06 | 0.00 | 90 | 1021.9 |
| 20260906010047 | 55 | 267 | 0.0 | 2.6 | 0.00 | 0.06 | 0.00 | 90 | 1021.8 |
| 20260906004545 | 55 | 298 | 0.9 | 4.3 | 0.00 | 0.06 | 0.00 | 89 | 1021.7 |
| 20260906003050 | 55 | 235 | 0.9 | 6.1 | 0.00 | 0.06 | 0.00 | 89 | 1021.7 |
| 20260906001541 | 56 | 317 | 0.9 | 3.5 | 0.00 | 0.06 | 0.00 | 88 | 1021.6 |
| 20260906000140 | 56 | 277 | 0.0 | 7.8 | 0.00 | 0.06 | 0.00 | 88 | 1021.5 |
| 20260905234548 | 56 | 302 | 1.7 | 4.3 | 0.00 | 0.06 | 0.00 | 87 | 1021.5 |
| 20260905233037 | 56 | 259 | 0.0 | 5.2 | 0.00 | 0.06 | 0.00 | 86 | 1021.5 |
| 20260905231533 | 57 | 254 | 0.9 | 3.5 | 0.00 | 0.06 | 0.00 | 85 | 1021.3 |
| 20260905230031 | 57 | 264 | 1.7 | 6.1 | 0.00 | 0.06 | 0.00 | 84 | 1021.2 |